Content
SEND FEEDBACK

Daily
Averages
Monthly
Summary
Mexico

PUEBLA - JARDINES DE SAN MANUEL, PUEBLA


Home > North America > Mexico > Puebla
Elevation: 6962 feet     Latitude: 19 00N     Longitude: 098 11W

WEATHER
 
SELECT A DAY
Number of Records: 124,731;   Date Range: 1/1/95 - 11/21/14
 
SHARE

PRINT THIS DATA

[ ← Previous Day ]
WEATHER ALMANAC - SEPTEMBER 28, 2013
[ Next Day → ]
[ °C ]   °F
Weather ElementAverageHighLow
Temperature64 °F77 °F (3:50 pm)48.2 °F (6:51 am)
Dewpoint50.8 °F60.8 °F (7:50 pm)35 °F (6:50 pm)
Humidity64.4 %100 % (5:51 am)19 % (6:50 pm)
Barometer30.20 in30.40 in (9:42 am)29.70 in (6:50 pm)
Wind Speed3.9 mph10.4 mph (5:48 pm)
Weather ElementAverage
Visibility7 mi
Wind DirectionSSE (153 °)

Weather ElementTotal
Precipitation---
Heating Degree Days2.4 (Base 65)
Growing Degree Days12.6 (Base 50)
Averaged from 26 records on September 28, 2013
WEATHER CONDITIONS BREAKOUT
WIND DIRECTION BREAKOUT
WEATHER BY HOUR - SEPTEMBER 28, 2013
[ °C ]   °F
Local TimeTemperatureDewpointHumidityBarometerVisibilityWind DirectionWind SpeedGust SpeedPrecipitationEventsConditions
3:50 AM58.0 °F55.0 °F86 %29.81 in3.0 miCalmScattered Clouds
5:51 AM50.0 °F50.0 °F100 %30.31 in8.0 miCalmScattered Clouds
6:50 AM54.0 °F47.0 °F71 %29.89 in3.0 miCalm
6:51 AM48.2 °F48.2 °F100 %30.33 in7.0 miCalmScattered Clouds
8:07 AM51.8 °F50.0 °F94 %30.36 in8.0 miNW (320°)4.6 mphScattered Clouds
8:45 AM55.4 °F51.8 °F88 %30.37 in8.0 miNorth (360°)3.5 mphScattered Clouds
9:42 AM62.6 °F51.8 °F68 %30.40 in8.0 miNNE (30°)5.8 mphScattered Clouds
9:50 AM63.0 °F47.0 °F45 %29.99 in3.0 miWNW (300°)2.2 mphClear
10:48 AM66.2 °F51.8 °F60 %30.40 in8.0 miSouth (190°)6.9 mphScattered Clouds
11:47 AM69.8 °F50.0 °F49 %30.38 in8.0 miENE (60°)3.5 mphScattered Clouds
12:41 PM71.6 °F44.6 °F38 %30.37 in8.0 miCalmScattered Clouds
12:50 PM73.0 °F45.0 °F25 %29.91 in12.0 miESE (120°)2.2 mphScattered Clouds
1:50 PM73.4 °F46.4 °F38 %30.33 in8.0 miESE (120°)4.6 mphScattered Clouds
3:05 PM73.4 °F46.4 °F38 %30.33 in8.0 miCalmScattered Clouds
3:40 PM75.2 °F50.0 °F41 %30.28 in8.0 miESE (120°)4.6 mphScattered Clouds
3:50 PM77.0 °F45.0 °F21 %29.75 in12.0 miSSE (150°)4.5 mphScattered Clouds
4:48 PM71.6 °F55.4 °F57 %30.26 in8.0 miSouth (170°)8.1 mphMostly Cloudy
5:48 PM69.8 °F55.4 °F60 %30.25 in8.0 miSSW (200°)10.4 mphMostly Cloudy
6:50 PM68.0 °F35.0 °F19 %29.70 in3.0 miWNW (300°)2.2 mphPartly Cloudy
6:55 PM66.2 °F57.2 °F73 %30.27 in8.0 miSouth (180°)10.4 mphOvercast
7:50 PM64.4 °F60.8 °F88 %30.30 in7.0 miSSE (160°)8.1 mphThunderstormThunderstorm
8:12 PM62.6 °F59.0 °F88 %30.33 in6.0 miNE (50°)8.1 mphThunderstormThunderstorm
8:43 PM60.8 °F57.2 °F88 %30.34 in6.0 miCalmDrizzle
9:50 PM62.0 °F53.0 °F63 %29.77 in3.0 miCalmRainLight Rain
9:51 PM59.0 °F55.4 °F88 %30.37 in7.0 miNorth (360°)5.8 mphOvercast
10:46 PM57.2 °F53.6 °F88 %30.37 in7.0 miNNW (330°)4.6 mphOvercast
Hourly data recorded from MMPB, located miles away from Puebla - Jardines de San Manuel, Puebla







STORIES FROM OUR PARTNERS